Time,TemperatureF,DewpointF,PressureIn,WindDirection,WindDirectionDegrees,WindSpeedMPH,WindSpeedGustMPH,Humidity,HourlyPrecipIn,Conditions,Clouds,dailyrainin,SoftwareType,DateUTC
2013-04-22 00:11:00,58.5,55.0,29.95,SSW,192,0.0,-999.0,87,-99.99,,,0.00,weatherlink.com 1.10,2013-04-22 07:11:00,
2013-04-22 00:26:00,58.4,55.0,29.94,SE,144,0.0,-999.0,87,-99.99,,,0.00,weatherlink.com 1.10,2013-04-22 07:26:00,
2013-04-22 00:41:00,58.3,55.0,29.94,SE,144,0.0,-999.0,87,-99.99,,,0.00,weatherlink.com 1.10,2013-04-22 07:41:00,
2013-04-22 00:56:00,58.4,55.0,29.94,SSE,149,0.0,-999.0,87,-99.99,,,0.00,weatherlink.com 1.10,2013-04-22 07:56:00,
2013-04-22 01:11:00,58.3,55.0,29.94,SW,223,1.0,-999.0,87,-99.99,,,0.00,weatherlink.com 1.10,2013-04-22 08:11:00,
2013-04-22 01:26:00,58.2,54.0,29.94,SW,223,0.0,-999.0,87,-99.99,,,0.00,weatherlink.com 1.10,2013-04-22 08:26:00,
2013-04-22 01:41:00,58.1,54.0,29.93,SW,223,0.0,-999.0,87,-99.99,,,0.00,weatherlink.com 1.10,2013-04-22 08:41:00,
2013-04-22 01:56:00,58.1,54.0,29.93,SW,223,0.0,-999.0,87,-99.99,,,0.00,weatherlink.com 1.10,2013-04-22 08:56:00,
2013-04-22 02:11:00,58.0,54.0,29.93,ESE,113,0.0,-999.0,87,-99.99,,,0.00,weatherlink.com 1.10,2013-04-22 09:11:00,
2013-04-22 02:26:00,58.1,54.0,29.93,SSW,205,0.0,-999.0,87,-99.99,,,0.00,weatherlink.com 1.10,2013-04-22 09:26:00,
2013-04-22 02:41:00,58.1,54.0,29.93,South,170,0.0,-999.0,86,-99.99,,,0.00,weatherlink.com 1.10,2013-04-22 09:41:00,
2013-04-22 02:56:00,58.1,54.0,29.92,South,184,0.0,-999.0,86,-99.99,,,0.00,weatherlink.com 1.10,2013-04-22 09:56:00,
2013-04-22 03:11:00,58.1,54.0,29.92,South,185,0.0,-999.0,86,-99.99,,,0.00,weatherlink.com 1.10,2013-04-22 10:11:00,
2013-04-22 03:26:00,58.1,54.0,29.92,WSW,239,0.0,-999.0,86,-99.99,,,0.00,weatherlink.com 1.10,2013-04-22 10:26:00,
2013-04-22 03:42:00,58.1,54.0,29.91,SW,215,0.0,-999.0,86,-99.99,,,0.00,weatherlink.com 1.10,2013-04-22 10:42:00,
2013-04-22 03:57:00,57.9,54.0,29.91,SW,215,1.0,-999.0,85,-99.99,,,0.00,weatherlink.com 1.10,2013-04-22 10:57:00,
2013-04-22 04:12:00,57.7,53.0,29.91,SSW,206,0.0,-999.0,85,-99.99,,,0.00,weatherlink.com 1.10,2013-04-22 11:12:00,
2013-04-22 04:27:00,57.8,53.0,29.91,SW,219,0.0,-999.0,85,-99.99,,,0.00,weatherlink.com 1.10,2013-04-22 11:27:00,
2013-04-22 04:42:00,57.7,53.0,29.91,SW,231,0.0,-999.0,85,-99.99,,,0.00,weatherlink.com 1.10,2013-04-22 11:42:00,
2013-04-22 04:57:00,57.7,53.0,29.91,SW,219,0.0,-999.0,85,-99.99,,,0.00,weatherlink.com 1.10,2013-04-22 11:57:00,
2013-04-22 05:12:00,57.6,53.0,29.91,South,185,0.0,-999.0,84,-99.99,,,0.00,weatherlink.com 1.10,2013-04-22 12:12:00,
2013-04-22 05:27:00,57.6,53.0,29.91,South,169,0.0,-999.0,84,-99.99,,,0.00,weatherlink.com 1.10,2013-04-22 12:27:00,
2013-04-22 05:42:00,57.5,53.0,29.91,South,176,2.0,-999.0,84,-99.99,,,0.00,weatherlink.com 1.10,2013-04-22 12:42:00,
2013-04-22 05:57:00,57.4,53.0,29.91,South,182,0.0,-999.0,84,-99.99,,,0.00,weatherlink.com 1.10,2013-04-22 12:57:00,
2013-04-22 06:12:00,57.3,53.0,29.91,South,183,0.0,-999.0,84,-99.99,,,0.00,weatherlink.com 1.10,2013-04-22 13:12:00,
2013-04-22 06:27:00,57.4,53.0,29.91,South,180,0.0,-999.0,84,-99.99,,,0.00,weatherlink.com 1.10,2013-04-22 13:27:00,
2013-04-22 06:42:00,57.6,53.0,29.92,SSW,209,0.0,-999.0,84,-99.99,,,0.00,weatherlink.com 1.10,2013-04-22 13:42:00,
2013-04-22 06:57:00,57.7,53.0,29.92,SSW,204,2.0,-999.0,83,-99.99,,,0.00,weatherlink.com 1.10,2013-04-22 13:57:00,
2013-04-22 07:12:00,57.7,52.0,29.93,SSE,159,0.0,-999.0,82,-99.99,,,0.00,weatherlink.com 1.10,2013-04-22 14:12:00,
2013-04-22 07:27:00,57.9,53.0,29.93,SSW,200,0.0,-999.0,83,-99.99,,,0.00,weatherlink.com 1.10,2013-04-22 14:27:00,
2013-04-22 07:42:00,58.4,53.0,29.94,SSE,150,0.0,-999.0,82,-99.99,,,0.00,weatherlink.com 1.10,2013-04-22 14:42:00,
2013-04-22 07:57:00,58.8,53.0,29.94,SSE,150,0.0,-999.0,81,-99.99,,,0.00,weatherlink.com 1.10,2013-04-22 14:57:00,
2013-04-22 08:12:00,59.2,53.0,29.94,ENE,78,0.0,-999.0,80,-99.99,,,0.00,weatherlink.com 1.10,2013-04-22 15:12:00,
2013-04-22 08:27:00,60.2,54.0,29.94,SW,232,2.0,-999.0,79,-99.99,,,0.00,weatherlink.com 1.10,2013-04-22 15:27:00,
2013-04-22 08:42:00,61.3,53.0,29.94,SSW,213,0.0,-999.0,75,-99.99,,,0.00,weatherlink.com 1.10,2013-04-22 15:42:00,
2013-04-22 08:57:00,61.6,54.0,29.94,SSW,196,2.0,-999.0,75,-99.99,,,0.00,weatherlink.com 1.10,2013-04-22 15:57:00,
2013-04-22 09:12:00,62.6,54.0,29.94,South,189,0.0,-999.0,74,-99.99,,,0.00,weatherlink.com 1.10,2013-04-22 16:12:00,
2013-04-22 09:27:00,63.2,54.0,29.94,WSW,240,0.0,-999.0,71,-99.99,,,0.00,weatherlink.com 1.10,2013-04-22 16:27:00,
2013-04-22 09:42:00,63.8,54.0,29.94,SW,223,5.0,-999.0,71,-99.99,,,0.00,weatherlink.com 1.10,2013-04-22 16:42:00,
2013-04-22 09:57:00,64.9,54.0,29.94,SSE,161,3.0,-999.0,69,-99.99,,,0.00,weatherlink.com 1.10,2013-04-22 16:57:00,
2013-04-22 10:12:00,65.6,55.0,29.94,SW,216,2.0,-999.0,68,-99.99,,,0.00,weatherlink.com 1.10,2013-04-22 17:12:00,
2013-04-22 10:27:00,66.1,55.0,29.94,WSW,241,1.0,-999.0,68,-99.99,,,0.00,weatherlink.com 1.10,2013-04-22 17:27:00,
2013-04-22 10:42:00,65.3,54.0,29.94,SW,231,0.0,-999.0,68,-99.99,,,0.00,weatherlink.com 1.10,2013-04-22 17:42:00,
2013-04-22 10:57:00,65.3,55.0,29.93,NNW,344,0.0,-999.0,69,-99.99,,,0.00,weatherlink.com 1.10,2013-04-22 17:57:00,
2013-04-22 11:12:00,65.6,55.0,29.93,SW,218,8.0,-999.0,68,-99.99,,,0.00,weatherlink.com 1.10,2013-04-22 18:12:00,
2013-04-22 11:27:00,67.2,55.0,29.93,WNW,289,3.0,-999.0,65,-99.99,,,0.00,weatherlink.com 1.10,2013-04-22 18:27:00,
2013-04-22 11:42:00,67.4,55.0,29.93,SW,215,3.0,-999.0,65,-99.99,,,0.00,weatherlink.com 1.10,2013-04-22 18:42:00,
2013-04-22 11:57:00,68.7,55.0,29.92,SSW,202,6.0,-999.0,63,-99.99,,,0.00,weatherlink.com 1.10,2013-04-22 18:57:00,
2013-04-22 12:12:00,68.3,55.0,29.91,SSW,206,2.0,-999.0,63,-99.99,,,0.00,weatherlink.com 1.10,2013-04-22 19:12:00,
2013-04-22 12:27:00,69.0,55.0,29.91,SSW,211,7.0,-999.0,62,-99.99,,,0.00,weatherlink.com 1.10,2013-04-22 19:27:00,
2013-04-22 12:43:00,69.1,55.0,29.90,West,274,5.0,-999.0,62,-99.99,,,0.00,weatherlink.com 1.10,2013-04-22 19:43:00,
2013-04-22 12:58:00,69.4,55.0,29.89,SSW,196,1.0,-999.0,60,-99.99,,,0.00,weatherlink.com 1.10,2013-04-22 19:58:00,
2013-04-22 13:13:00,70.2,56.0,29.89,WSW,240,5.0,-999.0,60,-99.99,,,0.00,weatherlink.com 1.10,2013-04-22 20:13:00,
2013-04-22 13:28:00,70.0,55.0,29.88,SSW,199,4.0,-999.0,60,-99.99,,,0.00,weatherlink.com 1.10,2013-04-22 20:28:00,
2013-04-22 13:43:00,68.8,55.0,29.88,SSW,207,2.0,-999.0,61,-99.99,,,0.00,weatherlink.com 1.10,2013-04-22 20:43:00,
2013-04-22 13:58:00,69.7,55.0,29.88,SSW,207,6.0,-999.0,60,-99.99,,,0.00,weatherlink.com 1.10,2013-04-22 20:58:00,
2013-04-22 14:13:00,69.7,55.0,29.88,WSW,237,4.0,-999.0,59,-99.99,,,0.00,weatherlink.com 1.10,2013-04-22 21:13:00,
2013-04-22 14:28:00,68.9,55.0,29.87,SW,232,3.0,-999.0,62,-99.99,,,0.00,weatherlink.com 1.10,2013-04-22 21:28:00,
2013-04-22 14:43:00,69.1,55.0,29.86,SW,222,4.0,-999.0,61,-99.99,,,0.00,weatherlink.com 1.10,2013-04-22 21:43:00,
2013-04-22 14:58:00,68.7,55.0,29.86,WSW,252,6.0,-999.0,61,-99.99,,,0.00,weatherlink.com 1.10,2013-04-22 21:58:00,
2013-04-22 15:13:00,68.8,56.0,29.86,SSW,209,5.0,-999.0,63,-99.99,,,0.00,weatherlink.com 1.10,2013-04-22 22:13:00,
2013-04-22 15:28:00,67.8,55.0,29.85,SSW,207,4.0,-999.0,64,-99.99,,,0.00,weatherlink.com 1.10,2013-04-22 22:28:00,
2013-04-22 15:43:00,68.8,55.0,29.85,SSW,209,7.0,-999.0,62,-99.99,,,0.00,weatherlink.com 1.10,2013-04-22 22:43:00,
2013-04-22 15:58:00,67.9,56.0,29.84,WSW,246,4.0,-999.0,65,-99.99,,,0.00,weatherlink.com 1.10,2013-04-22 22:58:00,
2013-04-22 16:13:00,67.0,56.0,29.84,SW,222,6.0,-999.0,67,-99.99,,,0.00,weatherlink.com 1.10,2013-04-22 23:13:00,
2013-04-22 16:28:00,66.2,56.0,29.84,SW,215,7.0,-999.0,69,-99.99,,,0.00,weatherlink.com 1.10,2013-04-22 23:28:00,
2013-04-22 16:43:00,66.1,55.0,29.84,SSW,211,3.0,-999.0,68,-99.99,,,0.00,weatherlink.com 1.10,2013-04-22 23:43:00,
2013-04-22 16:58:00,65.9,56.0,29.84,SW,220,5.0,-999.0,70,-99.99,,,0.00,weatherlink.com 1.10,2013-04-22 23:58:00,
2013-04-22 17:13:00,65.3,56.0,29.84,SSW,206,7.0,-999.0,71,-99.99,,,0.00,weatherlink.com 1.10,2013-04-23 00:13:00,
2013-04-22 17:28:00,64.4,56.0,29.84,SSW,200,11.0,-999.0,73,-99.99,,,0.00,weatherlink.com 1.10,2013-04-23 00:28:00,
2013-04-22 17:43:00,63.4,55.0,29.84,WSW,252,5.0,-999.0,75,-99.99,,,0.00,weatherlink.com 1.10,2013-04-23 00:43:00,
2013-04-22 17:58:00,62.6,55.0,29.84,SSW,192,6.0,-999.0,77,-99.99,,,0.00,weatherlink.com 1.10,2013-04-23 00:58:00,
2013-04-22 18:13:00,61.8,55.0,29.84,WSW,257,3.0,-999.0,79,-99.99,,,0.00,weatherlink.com 1.10,2013-04-23 01:13:00,
2013-04-22 18:28:00,61.8,55.0,29.84,WSW,257,2.0,-999.0,79,-99.99,,,0.00,weatherlink.com 1.10,2013-04-23 01:28:00,
2013-04-22 18:43:00,61.4,55.0,29.84,SW,224,4.0,-999.0,80,-99.99,,,0.00,weatherlink.com 1.10,2013-04-23 01:43:00,
2013-04-22 18:58:00,60.7,55.0,29.84,WSW,240,8.0,-999.0,81,-99.99,,,0.00,weatherlink.com 1.10,2013-04-23 01:58:00,
2013-04-22 19:13:00,60.2,55.0,29.84,SW,224,6.0,-999.0,82,-99.99,,,0.00,weatherlink.com 1.10,2013-04-23 02:13:00,
2013-04-22 19:28:00,59.9,55.0,29.85,SW,217,4.0,-999.0,83,-99.99,,,0.00,weatherlink.com 1.10,2013-04-23 02:28:00,
2013-04-22 19:43:00,59.5,55.0,29.85,SSW,206,5.0,-999.0,84,-99.99,,,0.00,weatherlink.com 1.10,2013-04-23 02:43:00,
2013-04-22 19:58:00,59.3,55.0,29.85,SSW,193,0.0,-999.0,84,-99.99,,,0.00,weatherlink.com 1.10,2013-04-23 02:58:00,
2013-04-22 20:13:00,59.2,54.0,29.86,SSW,207,1.0,-999.0,84,-99.99,,,0.00,weatherlink.com 1.10,2013-04-23 03:13:00,
2013-04-22 20:28:00,59.2,54.0,29.86,SW,219,1.0,-999.0,84,-99.99,,,0.00,weatherlink.com 1.10,2013-04-23 03:28:00,
2013-04-22 20:43:00,59.3,55.0,29.87,SW,234,1.0,-999.0,84,-99.99,,,0.00,weatherlink.com 1.10,2013-04-23 03:43:00,
2013-04-22 20:58:00,59.4,54.0,29.88,SSW,210,3.0,-999.0,83,-99.99,,,0.00,weatherlink.com 1.10,2013-04-23 03:58:00,
2013-04-22 21:13:00,59.5,54.0,29.88,SW,220,4.0,-999.0,83,-99.99,,,0.00,weatherlink.com 1.10,2013-04-23 04:13:00,
2013-04-22 21:28:00,59.6,54.0,29.89,SSW,212,1.0,-999.0,83,-99.99,,,0.00,weatherlink.com 1.10,2013-04-23 04:28:00,
2013-04-22 21:43:00,59.6,54.0,29.89,SSW,208,2.0,-999.0,82,-99.99,,,0.00,weatherlink.com 1.10,2013-04-23 04:43:00,
2013-04-22 21:58:00,59.5,54.0,29.88,SW,227,0.0,-999.0,82,-99.99,,,0.00,weatherlink.com 1.10,2013-04-23 04:58:00,
2013-04-22 22:13:00,59.7,54.0,29.88,South,181,0.0,-999.0,82,-99.99,,,0.00,weatherlink.com 1.10,2013-04-23 05:13:00,
2013-04-22 22:28:00,59.4,54.0,29.88,SSE,153,5.0,-999.0,81,-99.99,,,0.00,weatherlink.com 1.10,2013-04-23 05:28:00,
2013-04-22 22:43:00,59.2,53.0,29.88,South,173,0.0,-999.0,81,-99.99,,,0.00,weatherlink.com 1.10,2013-04-23 05:43:00,
2013-04-22 22:58:00,59.1,53.0,29.88,SSE,163,0.0,-999.0,81,-99.99,,,0.00,weatherlink.com 1.10,2013-04-23 05:58:00,
2013-04-22 23:13:00,59.1,53.0,29.88,SSE,153,0.0,-999.0,81,-99.99,,,0.00,weatherlink.com 1.10,2013-04-23 06:13:00,
2013-04-22 23:28:00,59.1,53.0,29.88,South,177,0.0,-999.0,81,-99.99,,,0.00,weatherlink.com 1.10,2013-04-23 06:28:00,
2013-04-22 23:43:00,59.1,53.0,29.88,South,178,2.0,-999.0,81,-99.99,,,0.00,weatherlink.com 1.10,2013-04-23 06:43:00,
2013-04-22 23:58:00,59.0,53.0,29.88,South,175,0.0,-999.0,80,-99.99,,,0.00,weatherlink.com 1.10,2013-04-23 06:58:00,